Time,TemperatureF,DewpointF,PressureIn,WindDirection,WindDirectionDegrees,WindSpeedMPH,WindSpeedGustMPH,Humidity,HourlyPrecipIn,Conditions,Clouds,dailyrainin,SoftwareType,DateUTC
2013-04-18 00:13:00,55.1,39.0,30.24,NE,51,3.0,6.0,56,0.00,,,0.00,weatherlink.com 1.10,2013-04-18 07:13:00,
2013-04-18 00:28:00,53.8,40.0,30.24,WNW,285,0.0,2.0,59,0.00,,,0.00,weatherlink.com 1.10,2013-04-18 07:28:00,
2013-04-18 00:43:00,51.8,39.0,30.23,ENE,68,0.0,2.0,62,0.00,,,0.00,weatherlink.com 1.10,2013-04-18 07:43:00,
2013-04-18 00:58:00,50.2,40.0,30.23,ENE,59,1.0,2.0,67,0.00,,,0.00,weatherlink.com 1.10,2013-04-18 07:58:00,
2013-04-18 01:14:00,50.6,39.0,30.23,SE,133,3.0,4.0,65,0.00,,,0.00,weatherlink.com 1.10,2013-04-18 08:14:00,
2013-04-18 01:29:00,51.3,39.0,30.23,SE,128,0.0,2.0,64,0.00,,,0.00,weatherlink.com 1.10,2013-04-18 08:29:00,
2013-04-18 01:44:00,51.5,40.0,30.23,WSW,245,1.0,4.0,64,0.00,,,0.00,weatherlink.com 1.10,2013-04-18 08:44:00,
2013-04-18 01:59:00,49.9,40.0,30.23,SE,128,0.0,2.0,68,0.00,,,0.00,weatherlink.com 1.10,2013-04-18 08:59:00,
2013-04-18 02:14:00,49.4,40.0,30.23,SE,127,0.0,0.0,69,0.00,,,0.00,weatherlink.com 1.10,2013-04-18 09:14:00,
2013-04-18 02:29:00,49.9,40.0,30.23,ESE,105,0.0,0.0,69,0.00,,,0.00,weatherlink.com 1.10,2013-04-18 09:29:00,
2013-04-18 02:44:00,49.3,40.0,30.22,ENE,67,0.0,2.0,70,0.00,,,0.00,weatherlink.com 1.10,2013-04-18 09:44:00,
2013-04-18 02:59:00,48.8,39.0,30.22,NNE,31,2.0,3.0,70,0.00,,,0.00,weatherlink.com 1.10,2013-04-18 09:59:00,
2013-04-18 03:14:00,49.3,39.0,30.22,NE,44,1.0,3.0,69,0.00,,,0.00,weatherlink.com 1.10,2013-04-18 10:14:00,
2013-04-18 03:29:00,47.2,39.0,30.23,SW,226,0.0,3.0,74,0.00,,,0.00,weatherlink.com 1.10,2013-04-18 10:29:00,
2013-04-18 03:44:00,46.9,40.0,30.23,SE,131,0.0,0.0,76,0.00,,,0.00,weatherlink.com 1.10,2013-04-18 10:44:00,
2013-04-18 03:59:00,47.2,40.0,30.22,SSE,152,0.0,2.0,75,0.00,,,0.00,weatherlink.com 1.10,2013-04-18 10:59:00,
2013-04-18 04:14:00,46.4,40.0,30.23,NE,42,0.0,0.0,77,0.00,,,0.00,weatherlink.com 1.10,2013-04-18 11:14:00,
2013-04-18 04:29:00,46.0,40.0,30.23,ESE,117,0.0,-999.0,78,-99.99,,,0.00,weatherlink.com 1.10,2013-04-18 11:29:00,
2013-04-18 04:44:00,47.1,38.0,30.22,ESE,117,0.0,2.0,72,0.00,,,0.00,weatherlink.com 1.10,2013-04-18 11:44:00,
2013-04-18 04:59:00,47.8,39.0,30.23,WNW,293,0.0,0.0,71,0.00,,,0.00,weatherlink.com 1.10,2013-04-18 11:59:00,
2013-04-18 05:14:00,46.2,39.0,30.23,SSE,155,0.0,0.0,75,0.00,,,0.00,weatherlink.com 1.10,2013-04-18 12:14:00,
2013-04-18 05:29:00,47.0,38.0,30.23,SSE,152,0.0,0.0,70,0.00,,,0.00,weatherlink.com 1.10,2013-04-18 12:29:00,
2013-04-18 05:44:00,48.3,39.0,30.23,SE,141,0.0,0.0,70,0.00,,,0.00,weatherlink.com 1.10,2013-04-18 12:44:00,
2013-04-18 05:59:00,49.0,40.0,30.23,ENE,60,0.0,0.0,70,0.00,,,0.00,weatherlink.com 1.10,2013-04-18 12:59:00,
2013-04-18 06:14:00,49.3,39.0,30.24,SE,134,0.0,0.0,68,0.00,,,0.00,weatherlink.com 1.10,2013-04-18 13:14:00,
2013-04-18 06:29:00,48.7,39.0,30.24,North,349,0.0,2.0,69,0.00,,,0.00,weatherlink.com 1.10,2013-04-18 13:29:00,
2013-04-18 06:44:00,49.1,39.0,30.24,SE,138,0.0,0.0,68,0.00,,,0.00,weatherlink.com 1.10,2013-04-18 13:44:00,
2013-04-18 06:59:00,49.3,39.0,30.24,ESE,103,0.0,0.0,69,0.00,,,0.00,weatherlink.com 1.10,2013-04-18 13:59:00,
2013-04-18 07:14:00,51.7,40.0,30.24,East,98,1.0,2.0,65,0.00,,,0.00,weatherlink.com 1.10,2013-04-18 14:14:00,
2013-04-18 07:29:00,54.5,41.0,30.25,SE,143,0.0,0.0,60,0.00,,,0.00,weatherlink.com 1.10,2013-04-18 14:29:00,
2013-04-18 07:44:00,55.1,40.0,30.25,ESE,117,0.0,0.0,58,0.00,,,0.00,weatherlink.com 1.10,2013-04-18 14:44:00,
2013-04-18 07:59:00,56.5,41.0,30.25,SSW,208,0.0,0.0,57,0.00,,,0.00,weatherlink.com 1.10,2013-04-18 14:59:00,
2013-04-18 08:14:00,57.6,44.0,30.25,SSW,198,0.0,0.0,60,0.00,,,0.00,weatherlink.com 1.10,2013-04-18 15:14:00,
2013-04-18 08:29:00,57.2,43.0,30.25,South,180,2.0,4.0,59,0.00,,,0.00,weatherlink.com 1.10,2013-04-18 15:29:00,
2013-04-18 08:44:00,58.5,44.0,30.25,SSE,162,1.0,4.0,58,0.00,,,0.00,weatherlink.com 1.10,2013-04-18 15:44:00,
2013-04-18 08:59:00,59.9,44.0,30.25,SSE,158,2.0,4.0,56,0.00,,,0.00,weatherlink.com 1.10,2013-04-18 15:59:00,
2013-04-18 09:14:00,61.4,45.0,30.25,SE,141,2.0,4.0,55,0.00,,,0.00,weatherlink.com 1.10,2013-04-18 16:14:00,
2013-04-18 09:30:00,62.7,46.0,30.25,SW,218,4.0,6.0,54,0.00,,,0.00,weatherlink.com 1.10,2013-04-18 16:30:00,
2013-04-18 09:45:00,63.1,46.0,30.25,SSW,211,2.0,5.0,55,0.00,,,0.00,weatherlink.com 1.10,2013-04-18 16:45:00,
2013-04-18 10:00:00,64.7,46.0,30.25,SSW,205,0.0,6.0,51,0.00,,,0.00,weatherlink.com 1.10,2013-04-18 17:00:00,
2013-04-18 10:15:00,66.9,42.0,30.26,NNE,12,0.0,4.0,41,0.00,,,0.00,weatherlink.com 1.10,2013-04-18 17:15:00,
2013-04-18 10:30:00,68.1,43.0,30.25,SW,223,0.0,4.0,40,0.00,,,0.00,weatherlink.com 1.10,2013-04-18 17:30:00,
2013-04-18 10:45:00,70.3,42.0,30.25,West,266,0.0,4.0,36,0.00,,,0.00,weatherlink.com 1.10,2013-04-18 17:45:00,
2013-04-18 11:00:00,71.2,41.0,30.25,SW,231,0.0,3.0,33,0.00,,,0.00,weatherlink.com 1.10,2013-04-18 18:00:00,
2013-04-18 11:15:00,72.4,41.0,30.25,ENE,64,0.0,4.0,32,0.00,,,0.00,weatherlink.com 1.10,2013-04-18 18:15:00,
2013-04-18 11:30:00,73.1,41.0,30.25,SSW,193,2.0,4.0,32,0.00,,,0.00,weatherlink.com 1.10,2013-04-18 18:30:00,
2013-04-18 11:45:00,74.2,42.0,30.24,WNW,297,2.0,5.0,31,0.00,,,0.00,weatherlink.com 1.10,2013-04-18 18:45:00,
2013-04-18 12:00:00,73.9,41.0,30.24,SSW,210,4.0,8.0,31,0.00,,,0.00,weatherlink.com 1.10,2013-04-18 19:00:00,
2013-04-18 12:15:00,75.0,41.0,30.24,SW,229,6.0,7.0,30,0.00,,,0.00,weatherlink.com 1.10,2013-04-18 19:15:00,
2013-04-18 12:30:00,74.8,42.0,30.23,West,270,3.0,9.0,31,0.00,,,0.00,weatherlink.com 1.10,2013-04-18 19:30:00,
2013-04-18 12:45:00,76.0,41.0,30.23,SSW,205,3.0,7.0,29,0.00,,,0.00,weatherlink.com 1.10,2013-04-18 19:45:00,
2013-04-18 13:00:00,76.7,41.0,30.22,WSW,239,3.0,5.0,28,0.00,,,0.00,weatherlink.com 1.10,2013-04-18 20:00:00,
2013-04-18 13:15:00,76.3,40.0,30.22,SE,146,5.0,7.0,27,0.00,,,0.00,weatherlink.com 1.10,2013-04-18 20:15:00,
2013-04-18 13:30:00,77.3,43.0,30.22,South,179,1.0,7.0,29,0.00,,,0.00,weatherlink.com 1.10,2013-04-18 20:30:00,
2013-04-18 13:45:00,77.2,43.0,30.21,SW,214,2.0,7.0,29,0.00,,,0.00,weatherlink.com 1.10,2013-04-18 20:45:00,
2013-04-18 14:00:00,76.6,44.0,30.21,South,170,9.0,13.0,31,0.00,,,0.00,weatherlink.com 1.10,2013-04-18 21:00:00,
2013-04-18 14:15:00,75.2,43.0,30.21,SW,219,5.0,10.0,32,0.00,,,0.00,weatherlink.com 1.10,2013-04-18 21:15:00,
2013-04-18 14:30:00,75.5,43.0,30.21,SSW,194,9.0,11.0,31,0.00,,,0.00,weatherlink.com 1.10,2013-04-18 21:30:00,
2013-04-18 14:45:00,75.8,41.0,30.20,SW,217,2.0,11.0,29,0.00,,,0.00,weatherlink.com 1.10,2013-04-18 21:45:00,
2013-04-18 15:00:00,75.4,45.0,30.20,SW,217,6.0,14.0,34,0.00,,,0.00,weatherlink.com 1.10,2013-04-18 22:00:00,
2013-04-18 15:15:00,74.6,46.0,30.20,South,190,8.0,15.0,36,0.00,,,0.00,weatherlink.com 1.10,2013-04-18 22:15:00,
2013-04-18 15:30:00,74.4,45.0,30.19,SSW,211,6.0,11.0,35,0.00,,,0.00,weatherlink.com 1.10,2013-04-18 22:30:00,
2013-04-18 15:45:00,74.7,44.0,30.19,SW,217,11.0,12.0,33,0.00,,,0.00,weatherlink.com 1.10,2013-04-18 22:45:00,
2013-04-18 16:00:00,73.8,44.0,30.19,South,172,12.0,13.0,35,0.00,,,0.00,weatherlink.com 1.10,2013-04-18 23:00:00,
2013-04-18 16:15:00,73.5,43.0,30.19,SSW,201,6.0,13.0,34,0.00,,,0.00,weatherlink.com 1.10,2013-04-18 23:15:00,
2013-04-18 16:31:00,73.1,44.0,30.18,SSW,211,10.0,13.0,35,0.00,,,0.00,weatherlink.com 1.10,2013-04-18 23:31:00,
2013-04-18 16:46:00,73.2,43.0,30.18,South,188,11.0,14.0,34,0.00,,,0.00,weatherlink.com 1.10,2013-04-18 23:46:00,
2013-04-18 17:01:00,72.3,42.0,30.18,SSW,203,7.0,12.0,34,0.00,,,0.00,weatherlink.com 1.10,2013-04-19 00:01:00,
2013-04-18 17:16:00,71.8,43.0,30.18,SE,142,6.0,15.0,35,0.00,,,0.00,weatherlink.com 1.10,2013-04-19 00:16:00,
2013-04-18 17:31:00,71.5,44.0,30.18,SSW,201,7.0,12.0,38,0.00,,,0.00,weatherlink.com 1.10,2013-04-19 00:31:00,
2013-04-18 17:46:00,70.9,45.0,30.18,SSW,200,5.0,11.0,40,0.00,,,0.00,weatherlink.com 1.10,2013-04-19 00:46:00,
2013-04-18 18:01:00,71.0,45.0,30.18,SSW,197,3.0,9.0,40,0.00,,,0.00,weatherlink.com 1.10,2013-04-19 01:01:00,
2013-04-18 18:16:00,71.0,44.0,30.18,SW,222,7.0,11.0,38,0.00,,,0.00,weatherlink.com 1.10,2013-04-19 01:16:00,
2013-04-18 18:31:00,70.7,45.0,30.18,South,179,4.0,9.0,40,0.00,,,0.00,weatherlink.com 1.10,2013-04-19 01:31:00,
2013-04-18 18:46:00,69.8,44.0,30.18,SW,225,2.0,9.0,40,0.00,,,0.00,weatherlink.com 1.10,2013-04-19 01:46:00,
2013-04-18 19:01:00,69.1,47.0,30.18,South,188,3.0,8.0,46,0.00,,,0.00,weatherlink.com 1.10,2013-04-19 02:01:00,
2013-04-18 19:16:00,69.0,46.0,30.17,SSW,204,2.0,5.0,44,0.00,,,0.00,weatherlink.com 1.10,2013-04-19 02:16:00,
2013-04-18 19:31:00,67.7,48.0,30.17,SW,229,0.0,4.0,50,0.00,,,0.00,weatherlink.com 1.10,2013-04-19 02:31:00,
2013-04-18 19:46:00,64.8,49.0,30.17,SW,229,0.0,0.0,57,0.00,,,0.00,weatherlink.com 1.10,2013-04-19 02:46:00,
2013-04-18 20:01:00,61.6,49.0,30.18,SSW,205,0.0,3.0,63,0.00,,,0.00,weatherlink.com 1.10,2013-04-19 03:01:00,
2013-04-18 20:16:00,60.0,49.0,30.18,WSW,250,0.0,0.0,66,0.00,,,0.00,weatherlink.com 1.10,2013-04-19 03:16:00,
2013-04-18 20:31:00,57.1,48.0,30.18,SSW,195,0.0,4.0,71,0.00,,,0.00,weatherlink.com 1.10,2013-04-19 03:31:00,
2013-04-18 20:46:00,55.8,48.0,30.19,SSW,198,0.0,0.0,74,0.00,,,0.00,weatherlink.com 1.10,2013-04-19 03:46:00,
2013-04-18 21:01:00,55.2,47.0,30.19,SSW,213,0.0,0.0,75,0.00,,,0.00,weatherlink.com 1.10,2013-04-19 04:01:00,
2013-04-18 21:16:00,54.1,47.0,30.20,SW,218,0.0,0.0,77,0.00,,,0.00,weatherlink.com 1.10,2013-04-19 04:16:00,
2013-04-18 21:31:00,53.1,47.0,30.20,SSW,193,0.0,0.0,79,0.00,,,0.00,weatherlink.com 1.10,2013-04-19 04:31:00,
2013-04-18 21:46:00,52.6,47.0,30.21,SW,219,0.0,0.0,80,0.00,,,0.00,weatherlink.com 1.10,2013-04-19 04:46:00,
2013-04-18 22:01:00,51.9,46.0,30.21,SSW,200,0.0,0.0,81,0.00,,,0.00,weatherlink.com 1.10,2013-04-19 05:01:00,
2013-04-18 22:16:00,51.6,46.0,30.21,SW,218,0.0,0.0,81,0.00,,,0.00,weatherlink.com 1.10,2013-04-19 05:16:00,
2013-04-18 22:31:00,51.2,46.0,30.20,SW,218,0.0,0.0,81,0.00,,,0.00,weatherlink.com 1.10,2013-04-19 05:31:00,
2013-04-18 22:46:00,50.5,45.0,30.21,SW,218,0.0,0.0,82,0.00,,,0.00,weatherlink.com 1.10,2013-04-19 05:46:00,
2013-04-18 23:01:00,50.5,45.0,30.20,SW,217,0.0,0.0,81,0.00,,,0.00,weatherlink.com 1.10,2013-04-19 06:01:00,
2013-04-18 23:16:00,50.3,45.0,30.20,SW,217,0.0,0.0,82,0.00,,,0.00,weatherlink.com 1.10,2013-04-19 06:16:00,
2013-04-18 23:31:00,49.9,45.0,30.21,SW,216,0.0,0.0,82,0.00,,,0.00,weatherlink.com 1.10,2013-04-19 06:31:00,
2013-04-18 23:46:00,50.1,45.0,30.20,SW,217,0.0,0.0,82,0.00,,,0.00,weatherlink.com 1.10,2013-04-19 06:46:00,